www.pogodaiklimat.ru

Погода и климат >> Архив погоды >> Россия >> Свердловская область >> Кушва


ПОГОДА в Кушве

  • Прогноз погоды в Кушве
  • Монитор погоды в Кушве

АРХИВ ПОГОДЫ в Кушве

Время (UTC), дата Ветер
(напр.,м/с)
 
Видим.   Явления Облачность Т
(С)
Тd
(С)
f
(%)
Тe
(С)
Тes
(С)
Комфортность P
(гПа)
Po
(гПа)
Тmin
(С)
Tmax
(С)
R
(мм)
R24
(мм)
S
(см)
09 13.04 СЗ 3 50 км 6/4 600 м
[Cu hum Cs]
+6.0 -7.3 38 +4 +8 1019.1 986.1
12 13.04 С 3 50 км 8/0
[Cs]
+6.7 -9.5 30 +5 +7 1019.4 986.5
15 13.04 СЗ 2 50 км 6/0
[Cs]
+3.6 -11.7 32 +2 +2 1020.3 987.1 +7.0
18 13.04 СВ 3 н/о н/о 0.0 -13.1 37 -4 -4 1023.0 989.2
21 13.04 СВ 3
{12}
н/о н/о -2.7 -12.6 46 -7 -7 1025.7 991.4
00 14.04 СВ 3 н/о н/о -4.7 -13.7 49 -10 -10 1027.1 992.6
03 14.04 СВ 4 50 км 3/0
[Cs]
-4.1 -13.8 47 -10 -8 1028.0 993.5 -5.7
06 14.04 СВ 3 50 км 1/0
[Cs]
-1.5 -15.4 34 -5 +1 1028.3 994.1
09 14.04 СВ 3 50 км ясно +1.1 -15.9 27 -2 +6 1027.6 993.7
12 14.04 СВ 2 50 км ясно +1.8 -17.3 23 -0 +4 1026.9 993.2
15 14.04 В 2 50 км ясно -0.5 -17.0 27 -3 -3 1026.6 992.6 +2.0
18 14.04 ЮЗ 1 н/о н/о -3.8 -16.6 36 -5 -5 1026.5 992.1
21 14.04 З 1 н/о н/о -7.8 -13.4 64 -10 -10 1025.7 990.8
00 15.04 ЮЗ 1 н/о н/о -8.7 -14.0 65 -11 -11 1024.6 989.6
03 15.04 З 3 50 км ясно -2.1 -15.7 34 -6 -5 1022.0 988.0 -8.9
06 15.04 З 4 50 км 4/0
[Ci]
+2.4 -15.3 26 -1 +4 1019.2 985.8
09 15.04 З 5
{11}
50 км 9/0
[Cc]
+5.1 -14.9 22 +2 +6 1016.1 983.1
12 15.04 З 4
{12}
50 км 10/0
[Ac lent Cc]
+4.7 -13.4 26 +2 +2 1013.9 980.9
15 15.04 З 6-12
{13}
50 км 4/1 600 м
[Sc Ac lent Cc]
+3.4 -10.6 35 -1 -1 1012.0 978.9 +5.9
18 15.04 З 4
{13}
н/о н/о +1.0 -3.6 71 -4 -4 1011.2 977.9
21 15.04 З 5
{10}
н/о н/о +1.0 -2.8 76 -5 -5 1008.8 975.6
00 16.04 З 4 н/о н/о +0.9 -2.7 77 -4 -4 1006.5 973.4
03 16.04 З 4 50 км слаб. ливневой снег 10/9 600 м
[Cb cap Ac und]
+1.2 -2.6 76 -4 -4 1005.6 972.5 +0.7 0.0
06 16.04 СЗ 3 10 км слаб. ливневой снег 10/10 600 м
[Cb cap]
+1.5 -3.1 71 -3 -3 1005.3 972.3 -1.0
09 16.04 С 5
{11}
50 км {ливн. осадки} 10/9 600 м
[Cb cap As trans]
+0.1 -10.3 45 -5 -5 1006.7 973.5
12 16.04 С 5-11
{11}
50 км {ливн. осадки} 9/9 600 м
[Cb cap Ac As]
+0.4 -12.1 39 -5 -4 1008.2 974.9
15 16.04 С 5-11
{16}
50 км слаб. ливневой снег 9/9 600 м
[Cb cap]
-4.6 -11.6 58 -11 -11 1013.2 979.2 +1.8 2
18 16.04 С 4
{12}
н/о н/о -8.0 -11.4 76 -15 -15 1017.5 982.9
21 16.04 С 3
{11}
н/о н/о -9.3 -16.9 54 -15 -15 1020.3 985.4
00 17.04 С 4
{10}
н/о н/о -10.5 -13.2 81 -17 -17 1022.4 987.3
03 17.04 С 4
{13}
1000 м ливневой снег 10/10 600 м
[Cb cap]
-10.5 -13.9 76 -17 -17 1024.2 989.0 -10.9 2 3
06 17.04 С 5-10
{11}
50 км {ливн. осадки, метель} 3/3 600 м
[Cu hum]
-6.8 -17.1 44 -14 -11 1026.0 991.3
09 17.04 С 4
{12}
50 км 3/3 600 м
[Cu hum]
-3.3 -15.2 39 -9 -4 1026.9 992.5
12 17.04 С 4
{10}
50 км 3/0
[Cs]
-0.7 -17.8 26 -5 -3 1026.8 992.8
15 17.04 СЗ 3 50 км 3/0
[Cs]
-1.9 -18.0 28 -6 -6 1027.3 993.1 -0.1 0.0
18 17.04 СЗ 3 н/о н/о -4.9 -17.2 37 -10 -10 1028.3 993.7
21 17.04 З 1 н/о н/о -7.4 -17.1 46 -9 -9 1028.8 993.8
00 18.04 З 3 н/о н/о -8.1 -17.5 47 -13 -13 1028.8 993.8
03 18.04 З 4 50 км 4/0
[Ci]
-5.4 -17.1 39 -11 -10 1028.6 993.9 -9.9
06 18.04 СЗ 5
{10}
50 км ясно -0.0 -16.4 28 -5 -0 1027.4 993.4
09 18.04 СЗ 2
{11}
50 км ясно +3.1 -16.7 22 +1 +11 опасность
простуды
1026.9 993.3
12 18.04 З 5
{10}
50 км 1/0
[Ci]
+4.4 -16.7 20 +1 +3 1026.1 992.7
15 18.04 СЗ 3 50 км 3/0
[Ci]
+2.3 -17.4 22 -1 -1 1026.1 992.5 +4.8
18 18.04 З 2 н/о н/о -1.2 -16.7 30 -4 -4 1026.8 992.7
21 18.04 З 2 н/о н/о -2.3 -16.3 33 -5 -5 1026.3 992.1
00 19.04 З 1 н/о н/о -4.6 -15.4 43 -6 -6 1025.9 991.4
03 19.04 З 3 50 км 3/3 600 м
[Sc]
0.0 -14.0 34 -4 -2 1024.2 990.4 -5.7
06 19.04 СЗ 3 50 км 4/1 600 м
[Cu hum Ac As Cc]
+5.6 -7.4 39 +3 +8 1022.6 989.5
09 19.04 СЗ 5 50 км 9/9 600 м
[Sc]
+6.5 -7.5 36 +3 +4 1021.7 988.7
12 19.04 СЗ 4 50 км 9/8 600 м
[Sc Ci]
+6.3 -7.7 36 +3 +4 1020.9 987.9
15 19.04 СЗ 3 50 км 9/9 600 м
[Sc]
+3.7 -7.3 44 +1 +1 1020.8 987.6 +7.0
18 19.04 З 3 н/о н/о +2.5 -6.9 50 -1 -1 1020.7 987.3
21 19.04 СЗ 2 н/о н/о +1.7 -5.8 57 -1 -1 1020.6 987.1
00 20.04 СЗ 2 н/о н/о +1.2 -5.3 62 -2 -2 1020.5 986.9
03 20.04 СЗ 3 50 км 10/10 600 м
[Sc]
+2.1 -4.8 60 -2 -2 1020.9 987.4 +1.2

 

Местоположение метеостанции Кушва (Свердловская область, Россия): широта 58.32 долгота 59.75 высота над уровнем моря 270 м.

В архиве по умолчанию представлена погода в Кушве за последнюю неделю. Архивные данные за месяц целиком и за предыдущие месяцы, начиная с января 2011 года, Вы можете получить, выбрав интересующий диапазон дат из раскрывающегося списка и нажав кнопку "Ввод!".


*Определитесь, кто Вы:
робот инопланетянин человек

Внимание! Время в таблицах - всемирное. Для получения местного времени необходимо прибавить поправку, которая равна 5 ч.

Смотрите также архив погоды в соседних городах и на ближайших метеорологических станциях:

Погода в Качканаре (Свердловская область, Россия) (42 км)
Погода в Нижнем Тагиле (Свердловская область, Россия) (52 км)
Погода в Бисере (Пермский край, Россия) (57 км)
Погода в Висиме (Свердловская область, Россия) (73 км)
Погода в Кыне (Пермский край, Россия) (85 км)
Погода в Верхотурье (Свердловская область, Россия) (85 км)
Погода в Невьянске (Свердловская область, Россия) (96 км)
Погода в Лысьве (Пермский край, Россия) (118 км)
Погода в Алапаевске (Свердловская область, Россия) (125 км)
Погода в Кытлыме (Свердловская область, Россия) (135 км)

Пояснения к столбцам:

Ветер - указаны скорость ветра в м/с - средняя за 10 мин, порывы в срок и между сроками (в фигурных скобках) и направление, откуда дует ветер: С - северный, СВ - северо-восточный, В - восточный, ЮВ - юго-восточный, Ю - южный, ЮЗ - юго-западный, З - западный, СЗ - северо-западный.
Видимость - горизонтальная дальность видимости в метрах или километрах. При видимости от 1 до 10 км при отсутствии осадков обычно наблюдается дымка, при ухудшении видимости до 1 км и менее - туман. В сухую погоду видимость может ухудшаться дымом, пылью или мглою.
Явления - указаны атмосферные явления, наблюдавшиеся в срок или в последний час перед сроком; фигурными скобками обозначены явления, наблюдавшиеся между сроками (за 1-3 часа до срока); квадратными скобками обозначены град или гололедные отложения с указанием их диаметра в мм.
Облачность - указаны через наклонную черту общая и нижняя облачность в баллах и высота нижней границы облаков в метрах; квадратными скобками обозначены формы облаков: Ci - перистые, Cs - перисто-слоистые, Cc - перисто-кучевые, Ac - высококучевые, As - высокослоистые, Sc - слоисто-кучевые, Ns - слоисто-дождевые, Cu - кучевые, Cb - кучево-дождевые. Подробнее классификацию облаков см. в Атласе облаков (PDF).
T - Температура воздуха - температура, измеренная на высоте 2 м над землей.
Td - Температура точки росы - температура, при понижении до которой содержащийся в воздухе водяной пар достигнет насыщения.
f - Относительная влажность воздуха - влажноcть воздуха, измеренная на высоте 2 м над землей.
Te - Эффективная температура - температура, которую ощущает одетый по сезону человек в тени. Характеристика душности погоды. При расчете учитывается влияние влажности воздуха и скорости ветра на теплоощущения человека.
Tes - Эффективная температура на солнце - температура, которую ощущает человек, с поправкой на солнечный нагрев. Характеристика знойности погоды. Зависит от высоты солнца над горизонтом, облачности и скорости ветра. Ночью, в пасмурную погоду, а также при ветре 12 м/с и более поправка равна нулю.
P - Атмосферное давление - приведенное к уровню моря атмосферное давление.
Po - Атмосферное давление - измеренное на уровне метеостанции атмосферное давление.
Tmin - Минимальная температура - минимум температуры воздуха на высоте 2 м над землей.
Tmax - Максимальная температура - максимум температуры воздуха на высоте 2 м над землей.
R - Количество осадков - Количество выпавших осадков за период времени, мм. При наведении курсора мыши на число - период времени, за который выпало указанное количество осадков.
R24 - Количество осадков - Количество выпавших осадков за 24 часа, мм.
S - Снежный покров - Высота снежного покрова, см. При наведении курсора мыши на число - состояние снежного покрова и степень покрытия местности в баллах.